Location: College Park
(38.9810°N, 76.9370°W)
Time: 00:43:27
(UTC-05:00)

OTV 5 (USA 277) - Visible Passes

Search period start: 18 February 2019 00:00
Search period end: 28 February 2019 00:00
Orbit: 342 x 346 km, 54.5° (Epoch: 17 February)

Date Brightness Start Highest point End Pass type
(mag) Time Alt. Az. Time Alt. Az. Time Alt. Az.
21 Feb ? 18:56:16 10° SSE 18:56:53 12° SE 18:56:53 12° SE visible
22 Feb ? 19:18:24 10° SSW 19:20:40 42° S 19:20:40 42° S visible
23 Feb ? 19:42:07 10° WSW 19:44:19 35° WNW 19:44:19 35° WNW visible
24 Feb ? 18:30:51 10° SSW 18:33:38 46° SE 18:36:21 11° ENE visible
24 Feb ? 20:06:55 10° WNW 20:07:49 14° NW 20:07:49 14° NW visible
25 Feb ? 18:54:31 10° WSW 18:57:16 41° NW 18:59:43 12° NNE visible
26 Feb ? 19:19:16 10° WNW 19:21:09 16° NNW 19:22:58 10° N visible
